Regional Weather Roundup
Issued by NWS Mobile, AL

Home | Current Version | Previous Version | Text Only | Print | Product List | Glossary On
Versions: 1 2 3 4 5 6 7 8 9 10 11 12 13 14 15 16 17 18 19 20 21 22 23 24 25 26 27 28 29 30 31 32 33 34 35 36 37 38 39 40 41 42 43 44 45 46 47 48 49 50
655
ASUS44 KMOB 012112
RWRMOB
REGIONAL WEATHER ROUNDUP
NATIONAL WEATHER SERVICE MOBILE AL
300 PM CST WED MAR 01 2017

NOTE: "FAIR" INDICATES FEW OR NO CLOUDS BELOW 12,000 FEET WITH NO
      SIGNIFICANT WEATHER AND/OR OBSTRUCTIONS TO VISIBILITY.

  * THESE STATIONS ARE PART OF THE UNIVERSITY OF SOUTH ALABAMA
    MESONET AND ARE NOT UNDER NWS OR FAA QUALITY CONTROL.

ALZ061>064-012200-
COASTAL ALABAMA

CITY           SKY/WX    TMP DP  RH WIND       PRES   REMARKS
MOBILE REG APT CLOUDY    78  68  71 S16G22    29.99F
BROOKLEY FIELD CLOUDY    79  71  76 SW8G20    30.00F
USA CAMPUS*      N/A     79  68  69 CALM      29.98F
DOG RIVER*       N/A     77  70  78 W6        30.74F


CITY           SKY/WX    TMP DP  RH WIND       PRES   REMARKS
GULF SHORES    CLOUDY    74  74 100 S9G17     30.02F

$$

ALZ051>060-012200-
INTERIOR SOUTHWEST AND SOUTH CENTRAL ALABAMA

CITY           SKY/WX    TMP DP  RH WIND       PRES   REMARKS
GREENVILLE     MOSUNNY   82  59  45 SW20G26   29.94F
EVERGREEN      LGT RAIN  80  64  58 SW14G26   29.96F
ATMORE*          N/A     77  66  69 SW10      30.00F
ANDALUSIA/OPP  PTSUNNY   82  65  56 SW12G21   29.98F
ANDALUSIA*       N/A     79  64  61 SW8       29.99F
FLORALA APT    CLOUDY    79  63  57 SW14G28   30.00F
FLORALA*         N/A     79  64  61 SE9       30.69F

$$

FLZ001>006-012200-
WESTERN FLORIDA PANHANDLE

CITY           SKY/WX    TMP DP  RH WIND       PRES   REMARKS
PENSACOLA      CLOUDY    78  69  73 SW17      30.01F
NAS PENSACOLA  CLOUDY    75  70  84 SW13      30.01F
MILTON         PTSUNNY   79  67  66 SW16G24   30.00F
WHTNG S FIELD  PTSUNNY   82  69  64 SW12G18   30.00F


CITY           SKY/WX    TMP DP  RH WIND       PRES   REMARKS
JAY*             N/A     77  64  65 SW22      29.99F
DUKE FIELD     PTSUNNY   78  68  71 SW17      30.00F
CRESTVIEW      CLOUDY    79  66  64 SW17G26   30.02F
VALPARAISO     PTSUNNY   73  70  88 S12       30.03F FOG
DESTIN         NOT AVBL

$$

MSZ076-079-012200-
INTERIOR SOUTHEAST MISSISSIPPI

CITY           SKY/WX    TMP DP  RH WIND       PRES   REMARKS
LEAKESVILLE*   NOT AVBL
AGRICOLA*        N/A     79  70  73 S3        29.96F

$$

MARINE OBSERVATIONS

STATION/POSITION TIME  TEMP    WIND        PRES    WAVE
                       AIR SEA DIR/SP/G            HT/PER
                 (UTC) (F)     (DEG/KT/KT) (MB)    (FT/S)
PASCAGOULA       2048   73     180/  8/ 11 1015.7F
PETIT BOIS ISLND 2048   72     180/  9/ 11 1016.6F
GRAND BAY        1930   72     190/  6     1018.0F
KATRINA CUT      2030          190/  8     1016.3F
E DAUPHIN ISLAND 2000   71     170/  6/  7 1016.6F
MIDDLE BAY LIGHT 2030   70     180/ 11     1016.6F
USCG MOBILE BAY  2048   78 66  220/  8/ 16 1016.1F
STATE DOCKS      2048   78 65              1015.3F
WEEKS BAY        1945   77                   N/A
FORT MORGAN      2048   72     190/  9/ 10   N/A
12 S ORANGE BCH  1950   71 69  240/  4/  6 1017.6F   4/ 6
PENSACOLA BAY    2048   74 69  180/  5/  8 1016.8F
67 S FORT MORGAN 2030   73     210/ 14     1017.3F

$$

SELECTED LOCATIONS ACROSS THE REGION

CITY           SKY/WX    TMP DP  RH WIND       PRES   REMARKS
NEW ORLEANS    PTSUNNY   82  68  62 W12       29.97F
GULFPORT       MOSUNNY   79  70  74 S10G18    29.97F
PASCAGOULA AP  CLOUDY    75  69  81 SW7       29.99F
PASCAGOULA*    NOT AVBL
HATTIESBURG    MOSUNNY   83  61  47 SW10      29.94F
LAUREL         MOSUNNY   81  61  50 S8        29.95F
MERIDIAN       MOSUNNY   82  64  54 SW15G28   29.91S
JACKSON        TSTM      74  66  76 NW13G29   29.95R
MONTGOMERY     CLOUDY    83  59  44 SW13G18   29.92F
TROY           LGT RAIN  81  63  54 SW20G32   29.97F
ASHFORD*         N/A     79  64  61 SW8       29.99F
DOTHAN         MOSUNNY   79  67  66 SW17G25   30.02F
PANAMA CITY    CLOUDY    77  70  79 SW16      30.04F

$$





USA.gov is the U.S. government's official web portal to all federal, state and local government web resources and services.